Orbital Elements at Epoch 2459000.5 (2020-May-31.0) TDB
Reference: JPL 14 (heliocentric ecliptic J2000)
Element | Value | Uncertainty (1-sigma) | Units |
e | .1958586265268918 | 4.5468e-08 | |
a | 2.669669107174425 | 2.2607e-08 | au |
q | 2.146791382561969 | 1.2702e-07 | au |
i | 12.94002578702266 | 4.1999e-06 | deg |
node | 150.1053578374759 | 2.6176e-05 | deg |
peri | 209.3077431634148 | 3.0794e-05 | deg |
M | 265.2998709672763 | 1.9905e-05 | deg |
tp | 2459419.614465756467 (2021-Jul-24.11446576) | 9.2031e-05 | TDB |
period | 1593.252398000333 4.36 | 2.0238e-05 5.541e-08 | d yr |
n | .225952900150554 | 2.8701e-09 | deg/d |
Q | 3.192546831786882 | 2.7035e-08 | au |
|
| | Orbit Determination Parameters
Additional Information
|